| time (UTC) | temp C | wind direction | speed KPH | gust KPH | rain 1hr cm | rain 24hr cm | rain mn cm | humidity % | barometer mb |
| 20260504081532 | 17 | 233 | 4.8 | 12.9 | 0.00 | 0.00 | 0.00 | 67 | 1013.9 |
| 20260504050007 | 18 | 128 | 0.0 | 6.4 | 0.00 | 0.00 | 0.00 | 62 | 1016.0 |
| 20260504044513 | 18 | 155 | 0.0 | 6.4 | 0.00 | 0.00 | 0.00 | 61 | 1016.1 |
| 20260504043009 | 19 | 149 | 1.6 | 6.4 | 0.00 | 0.00 | 0.00 | 61 | 1016.1 |
| 20260504041505 | 18 | 250 | 1.6 | 6.4 | 0.00 | 0.00 | 0.00 | 62 | 1016.0 |
| 20260504040005 | 18 | 221 | 1.6 | 6.4 | 0.00 | 0.00 | 0.00 | 62 | 1016.1 |
| 20260504034504 | 18 | 127 | 0.0 | 6.4 | 0.00 | 0.00 | 0.00 | 63 | 1016.1 |
| 20260504033007 | 18 | 141 | 0.0 | 3.2 | 0.00 | 0.00 | 0.00 | 63 | 1016.1 |
| 20260504031505 | 18 | 120 | 1.6 | 4.8 | 0.00 | 0.00 | 0.00 | 62 | 1015.9 |
| 20260504030003 | 19 | 103 | 0.0 | 4.8 | 0.00 | 0.00 | 0.00 | 62 | 1015.8 |
| 20260504024504 | 20 | 158 | 0.0 | 4.8 | 0.00 | 0.00 | 0.00 | 60 | 1015.8 |
| 20260504023003 | 20 | 226 | 0.0 | 4.8 | 0.00 | 0.00 | 0.00 | 59 | 1015.9 |
| 20260504021509 | 20 | 220 | 0.0 | 4.8 | 0.00 | 0.00 | 0.00 | 56 | 1015.8 |
| 20260504020001 | 21 | 274 | 1.6 | 4.8 | 0.00 | 0.00 | 0.00 | 54 | 1015.7 |
| 20260504014501 | 21 | 221 | 0.0 | 3.2 | 0.00 | 0.00 | 0.00 | 52 | 1015.7 |
| 20260504013002 | 22 | 120 | 0.0 | 4.8 | 0.00 | 0.00 | 0.00 | 49 | 1015.8 |
| 20260504011600 | 22 | 126 | 1.6 | 6.4 | 0.00 | 0.00 | 0.00 | 47 | 1015.6 |
| 20260504010101 | 23 | 255 | 1.6 | 8.0 | 0.00 | 0.00 | 0.00 | 46 | 1015.6 |
| 20260504004601 | 24 | 97 | 1.6 | 9.7 | 0.00 | 0.00 | 0.00 | 45 | 1015.6 |
| 20260504003100 | 25 | 244 | 3.2 | 12.9 | 0.00 | 0.00 | 0.00 | 44 | 1015.6 |
| 20260504001606 | 25 | 119 | 3.2 | 9.7 | 0.00 | 0.00 | 0.00 | 44 | 1015.5 |
| 20260504000058 | 25 | 238 | 3.2 | 14.5 | 0.00 | 0.00 | 0.00 | 42 | 1015.7 |
| 20260503234555 | 25 | 53 | 3.2 | 17.7 | 0.00 | 0.00 | 0.00 | 40 | 1015.7 |
| 20260503233100 | 26 | 207 | 4.8 | 12.9 | 0.00 | 0.00 | 0.00 | 39 | 1015.8 |
| 20260503231554 | 26 | 144 | 6.4 | 19.3 | 0.00 | 0.00 | 0.00 | 41 | 1016.0 |
| 20260503230055 | 26 | 250 | 4.8 | 19.3 | 0.00 | 0.00 | 0.00 | 40 | 1016.1 |
| 20260503224548 | 27 | 276 | 3.2 | 17.7 | 0.00 | 0.00 | 0.00 | 40 | 1016.1 |
| 20260503223047 | 27 | 146 | 4.8 | 20.9 | 0.00 | 0.00 | 0.00 | 39 | 1016.3 |
| 20260503221547 | 27 | 248 | 6.4 | 12.9 | 0.00 | 0.00 | 0.00 | 38 | 1016.4 |
| 20260503220044 | 27 | 269 | 4.8 | 17.7 | 0.00 | 0.00 | 0.00 | 36 | 1016.5 |
| 20260503214542 | 27 | 112 | 4.8 | 20.9 | 0.00 | 0.00 | 0.00 | 36 | 1016.6 |
| 20260503213045 | 28 | 75 | 6.4 | 17.7 | 0.00 | 0.00 | 0.00 | 36 | 1016.8 |
| 20260503211543 | 28 | 223 | 4.8 | 22.5 | 0.00 | 0.00 | 0.00 | 36 | 1017.0 |
| 20260503210035 | 28 | 219 | 6.4 | 17.7 | 0.00 | 0.00 | 0.00 | 34 | 1017.4 |
| 20260503204535 | 28 | 161 | 6.4 | 11.3 | 0.00 | 0.00 | 0.00 | 36 | 1017.6 |
| 20260503203032 | 28 | 148 | 3.2 | 17.7 | 0.00 | 0.00 | 0.00 | 35 | 1017.8 |
| 20260503201530 | 28 | 172 | 4.8 | 14.5 | 0.00 | 0.00 | 0.00 | 38 | 1018.2 |
| 20260503200031 | 28 | 257 | 3.2 | 14.5 | 0.00 | 0.00 | 0.00 | 38 | 1018.3 |
| 20260503194525 | 27 | 242 | 3.2 | 17.7 | 0.00 | 0.00 | 0.00 | 40 | 1018.6 |
| 20260503193025 | 27 | 282 | 6.4 | 17.7 | 0.00 | 0.00 | 0.00 | 40 | 1018.8 |
| 20260503191520 | 27 | 169 | 6.4 | 16.1 | 0.00 | 0.00 | 0.00 | 41 | 1018.9 |
| 20260503190037 | 27 | 252 | 6.4 | 19.3 | 0.00 | 0.00 | 0.00 | 41 | 1019.0 |
| 20260503184515 | 27 | 255 | 6.4 | 17.7 | 0.00 | 0.00 | 0.00 | 43 | 1019.2 |
| 20260503183016 | 27 | 262 | 3.2 | 16.1 | 0.00 | 0.00 | 0.00 | 45 | 1019.6 |
| 20260503181511 | 26 | 166 | 8.0 | 17.7 | 0.00 | 0.00 | 0.00 | 44 | 1019.9 |
| 20260503180012 | 26 | 2 | 6.4 | 16.1 | 0.00 | 0.00 | 0.00 | 45 | 1020.2 |
| 20260503174508 | 26 | 266 | 4.8 | 17.7 | 0.00 | 0.00 | 0.00 | 45 | 1020.4 |
| 20260503173007 | 26 | 250 | 4.8 | 12.9 | 0.00 | 0.00 | 0.00 | 46 | 1020.6 |
| 20260503171505 | 26 | 248 | 4.8 | 16.1 | 0.00 | 0.00 | 0.00 | 46 | 1020.7 |